Weather History for Louisa, VA

Change the Weather History Date:

Saturday, March 8, 2014

  Actual Average (KCHO) Record (KCHO)
Temperature  
Mean Temperature 46 °F 43 °F  
Max Temperature 69 °F 55 °F 82 °F (2009)
Min Temperature 24 °F 32 °F 10 °F (1986)
Degree Days  
Heating Degree Days 18 22  
Month to date heating degree days 182  
Since 1 July heating degree days 3594  
Cooling Degree Days 0 0  
Month to date cooling degree days 0  
Year to date cooling degree days 0  
Moisture  
Dew Point 31 °F    
Average Humidity 61    
Maximum Humidity 100    
Minimum Humidity 26    
Precipitation  
Precipitation 0.00 in 0.11 in 1.04 in (1995)
Month to date precipitation 0.82  
Year to date precipitation 6.29  
Sea Level Pressure  
Sea Level Pressure 29.92 in    
Wind  
Wind Speed 3 mph (WSW)    
Max Wind Speed 12 mph    
Max Gust Speed 17 mph    
Visibility 9 miles    
Events      
T = Trace of Precipitation, MM = Missing Value Source: NWS Daily Summary

Daily Weather History Graph

Daily Weather History Graph

Search for Another Location

Airport:

Trip Planner

Search our weather history database for the weather conditions in past years. The results will help you decide how hot, cold, wet, or windy it might be!

Date:

Astronomy

Mar. 08, 2014 Rise Set
Actual Time 6:33 AM EST 6:12 PM EST
Civil Twilight 6:07 AM EST 6:38 PM EST
Nautical Twilight 5:36 AM EST 7:09 PM EST
Astronomical Twilight 5:06 AM EST 7:39 PM EST
Moon 11:19 AM EST (3/8) 1:02 AM EST (3/8)
Length of Visible Light 12h 31m
Length of Day
11h 38m
First Quarter, 51% of the Moon is Illuminated
Mar 8
First Quarter
Mar 16
Full
Mar 23
Last Quarter
Mar 30
New
Apr 7
First Quarter

Hourly Weather History & Observations

Time (EST) Temp. Windchill Dew Point Humidity Pressure Visibility Wind Dir Wind Speed Gust Speed Precip Events Conditions
12:15 AM 33.8 °F 30.8 °F 26.6 °F 75% 29.92 in 10.0 mi North 3.5 mph - N/A   Clear
12:35 AM 33.8 °F 30.8 °F 26.6 °F 75% 29.92 in 10.0 mi North 3.5 mph - N/A   Clear
12:55 AM 33.8 °F - 26.6 °F 75% 29.93 in 10.0 mi Calm Calm - N/A   Clear
1:15 AM 28.4 °F - 26.6 °F 93% 29.93 in 10.0 mi Calm Calm - N/A   Clear
1:35 AM 30.2 °F 26.7 °F 26.6 °F 86% 29.93 in 10.0 mi NW 3.5 mph - N/A   Clear
1:55 AM 28.4 °F - 24.8 °F 86% 29.93 in 10.0 mi Calm Calm - N/A   Clear
2:15 AM 26.6 °F 22.6 °F 24.8 °F 93% 29.93 in 7.0 mi West 3.5 mph - N/A   Clear
2:35 AM 28.4 °F - 26.6 °F 93% 29.93 in 10.0 mi Calm Calm - N/A   Clear
2:50 AM 26.6 °F - 24.8 °F 93% 29.93 in 7.0 mi Calm Calm - N/A   Clear
3:15 AM 26.6 °F 22.6 °F 24.8 °F 93% 29.93 in 7.0 mi West 3.5 mph - N/A   Clear
3:35 AM 24.8 °F - 23.0 °F 93% 29.93 in 5.0 mi Calm Calm - N/A   Clear
3:55 AM 26.6 °F - 24.8 °F 93% 29.94 in 5.0 mi Calm Calm - N/A   Clear
4:15 AM 24.8 °F - 23.0 °F 93% 29.94 in 5.0 mi Calm Calm - N/A   Clear
4:35 AM 24.8 °F - 24.8 °F 100% 29.94 in 7.0 mi Calm Calm - N/A   Clear
4:55 AM 24.8 °F - 24.8 °F 100% 29.95 in 5.0 mi Calm Calm - N/A   Clear
5:15 AM 24.8 °F - 24.8 °F 100% 29.95 in 5.0 mi Calm Calm - N/A   Clear
5:35 AM 24.8 °F - 23.0 °F 93% 29.95 in 5.0 mi Calm Calm - N/A   Clear
5:55 AM 28.4 °F 23.3 °F 26.6 °F 93% 29.95 in 10.0 mi SW 4.6 mph - N/A   Clear
6:15 AM 30.2 °F 26.7 °F 26.6 °F 86% 29.95 in 10.0 mi SW 3.5 mph - N/A   Clear
6:35 AM 30.2 °F - 26.6 °F 86% 29.95 in 10.0 mi Calm Calm - N/A   Clear
6:55 AM 30.2 °F - 26.6 °F 86% 29.96 in 10.0 mi Calm Calm - N/A   Clear
7:15 AM 30.2 °F 26.7 °F 28.4 °F 93% 29.96 in 10.0 mi SSW 3.5 mph - N/A   Clear
7:35 AM 33.8 °F 28.6 °F 28.4 °F 81% 29.98 in 10.0 mi SSW 5.8 mph - N/A   Clear
7:55 AM 35.6 °F 32.8 °F 28.4 °F 75% 29.99 in 10.0 mi SW 3.5 mph - N/A   Clear
8:15 AM 37.4 °F 33.8 °F 30.2 °F 75% 29.99 in 10.0 mi SSW 4.6 mph - N/A   Clear
8:35 AM 37.4 °F 33.8 °F 30.2 °F 75% 29.99 in 10.0 mi SW 4.6 mph - N/A   Clear
8:55 AM 39.2 °F 35.9 °F 30.2 °F 70% 29.98 in 10.0 mi South 4.6 mph - N/A   Clear
9:15 AM 42.8 °F 38.6 °F 32.0 °F 66% 29.97 in 10.0 mi SW 6.9 mph - N/A   Clear
9:35 AM 44.6 °F 43.1 °F 32.0 °F 61% 29.97 in 10.0 mi SW 3.5 mph - N/A   Clear
9:55 AM 46.4 °F - 33.8 °F 62% 29.97 in 10.0 mi Calm Calm - N/A   Clear
10:15 AM 48.2 °F - 33.8 °F 58% 29.97 in 10.0 mi SSW 3.5 mph - N/A   Clear
10:35 AM 51.8 °F - 33.8 °F 50% 29.97 in 10.0 mi SW 4.6 mph - N/A   Clear
10:55 AM 55.4 °F - 33.8 °F 44% 29.96 in 10.0 mi WSW 3.5 mph - N/A   Clear
11:15 AM 57.2 °F - 35.6 °F 44% 29.95 in 10.0 mi SW 3.5 mph - N/A   Clear
11:35 AM 60.8 °F - 35.6 °F 39% 29.94 in 10.0 mi SW 6.9 mph - N/A   Clear
11:55 AM 60.8 °F - 35.6 °F 39% 29.93 in 10.0 mi West 6.9 mph - N/A   Clear
12:15 PM 62.6 °F - 35.6 °F 37% 29.92 in 10.0 mi SW 6.9 mph - N/A   Clear
12:35 PM 64.4 °F - 35.6 °F 34% 29.91 in 10.0 mi WSW 6.9 mph - N/A   Clear
12:55 PM 62.6 °F - 35.6 °F 37% 29.91 in 10.0 mi SW 8.1 mph - N/A   Clear
1:15 PM 62.6 °F - 35.6 °F 37% 29.91 in 10.0 mi West 8.1 mph - N/A   Clear
1:35 PM 64.4 °F - 35.6 °F 34% 29.90 in 10.0 mi SSW 6.9 mph - N/A   Clear
1:55 PM 66.2 °F - 35.6 °F 32% 29.89 in 10.0 mi West 9.2 mph - N/A   Clear
2:15 PM 66.2 °F - 35.6 °F 32% 29.89 in 10.0 mi SW 6.9 mph 16.1 mph N/A   Clear
2:35 PM 66.2 °F - 35.6 °F 32% 29.88 in 10.0 mi WSW 5.8 mph - N/A   Clear
2:55 PM 68.0 °F - 35.6 °F 30% 29.88 in 10.0 mi West 9.2 mph - N/A   Clear
3:15 PM 68.0 °F - 35.6 °F 30% 29.88 in 10.0 mi West 11.5 mph - N/A   Clear
3:35 PM 69.8 °F - 35.6 °F 28% 29.87 in 10.0 mi West 6.9 mph 10.4 mph N/A   Clear
3:55 PM 69.8 °F - 35.6 °F 28% 29.87 in 10.0 mi WNW 10.4 mph - N/A   Clear
4:15 PM 68.0 °F - 32.0 °F 26% 29.87 in 10.0 mi West 10.4 mph 17.3 mph N/A   Clear
4:35 PM 66.2 °F - 32.0 °F 28% 29.87 in 10.0 mi West 10.4 mph 16.1 mph N/A   Clear
4:55 PM 64.4 °F - 32.0 °F 30% 29.87 in 10.0 mi WNW 8.1 mph - N/A   Clear
5:15 PM 64.4 °F - 33.8 °F 32% 29.88 in 10.0 mi West 3.5 mph - N/A   Clear
5:35 PM 62.6 °F - 35.6 °F 37% 29.88 in 10.0 mi Calm Calm - N/A   Clear
5:55 PM 62.6 °F - 35.6 °F 37% 29.88 in 10.0 mi Calm Calm - N/A   Clear
6:15 PM 55.4 °F - 39.2 °F 54% 29.89 in 10.0 mi Calm Calm - N/A   Clear
6:35 PM 51.8 °F - 37.4 °F 58% 29.89 in 10.0 mi Calm Calm - N/A   Clear
6:55 PM 48.2 °F - 35.6 °F 62% 29.90 in 10.0 mi Calm Calm - N/A   Clear
7:15 PM 48.2 °F - 33.8 °F 58% 29.90 in 10.0 mi Calm Calm - N/A   Clear
7:35 PM 48.2 °F - 33.8 °F 58% 29.91 in 10.0 mi Calm Calm - N/A   Clear
7:55 PM 51.8 °F - 32.0 °F 47% 29.91 in 10.0 mi WSW 6.9 mph - N/A   Clear
8:15 PM 55.4 °F - 32.0 °F 41% 29.92 in 10.0 mi WSW 4.6 mph - N/A   Clear
8:35 PM 53.6 °F - 32.0 °F 44% 29.91 in 10.0 mi WSW 3.5 mph - N/A   Scattered Clouds
8:55 PM 48.2 °F - 33.8 °F 58% 29.91 in 10.0 mi WSW 3.5 mph - N/A   Scattered Clouds
9:15 PM 51.8 °F - 33.8 °F 50% 29.92 in 10.0 mi WSW 4.6 mph - N/A   Scattered Clouds
9:35 PM 51.8 °F - 32.0 °F 47% 29.92 in 10.0 mi WSW 4.6 mph - N/A   Clear
9:55 PM 46.4 °F 45.2 °F 32.0 °F 57% 29.92 in 10.0 mi WSW 3.5 mph - N/A   Clear
10:15 PM 44.6 °F 42.2 °F 33.8 °F 66% 29.92 in 10.0 mi WSW 4.6 mph - N/A   Clear
10:35 PM 50.0 °F - 28.4 °F 43% 29.92 in 10.0 mi West 3.5 mph - N/A   Clear
10:55 PM 44.6 °F 43.1 °F 30.2 °F 57% 29.92 in 10.0 mi West 3.5 mph - N/A   Clear
11:15 PM 42.8 °F 41.1 °F 30.2 °F 61% 29.91 in 10.0 mi West 3.5 mph - N/A   Clear
11:35 PM 42.8 °F - 30.2 °F 61% 29.91 in 10.0 mi Calm Calm - N/A   Clear
11:55 PM 48.2 °F - 30.2 °F 50% 29.91 in 10.0 mi WSW 4.6 mph - N/A   Clear